Location: ?????
(42.2640°N, 43.4211°E)
Time: 14:36:46
(UTC+00:00)

OAO 3 Rocket - Pass Details

Date: 07 August 2020
Orbit: 629 x 683 km, 35.0° (Epoch: 19 September)

Event Time Altitude Azimuth Distance (km) Brightness Sun altitude
Exits shadow 01:00:03 15° 218° (SW) 1,820 4.9 -11.4°
Maximum altitude 01:03:19 28° 167° (SSE) 1,250 4.4 -10.9°
Drops below altitude 10° 01:07:31 10° 108° (ESE) 2,101 6.3 -10.3°
Sets 01:10:08 0° 97° (E) 3,008 7.4 -9.9°
